Weather Roundup
Issued by NWS Corpus Christi, TX

Home | Current Version | Previous Version | Text Only | Print | Product List | Glossary On
Versions: 1 2 3 4 5 6 7 8 9 10 11 12 13 14 15 16 17 18 19 20 21 22 23 24 25 26 27 28 29 30 31 32 33 34 35 36 37 38 39 40 41 42 43 44 45 46 47 48 49 50
000
ASUS44 KCRP 291110
HRRCRP

SOUTH TEXAS REGIONAL WEATHER ROUNDUP
NATIONAL WEATHER SERVICE CORPUS CHRISTI TX
600 AM CDT FRI MAY 29 2015


TXZ229>244-291200-
...CORPUS CHRISTI AREA OBSERVATIONS...

CITY           SKY/WX    TMP DP  RH WIND       PRES   REMARKS
CORPUS CHRISTI TSTM      67  65  93 N15       30.02F
NAS CORPUS CHR TSTM      67  65  93 N29G43    30.01R FOG
ROCKPORT       LGT RAIN  69  64  84 N14       30.02S
KINGSVILLE NAS HVY RAIN  67  66  97 N15G23    30.02R FOG
ALICE          CLOUDY    67  64  90 NE7       30.01F
FALFURRIAS     CLOUDY    66  63  91 N16G37    30.01R VSB 3/4
$$

...VICTORIA AREA OBSERVATIONS...

CITY           SKY/WX    TMP DP  RH WIND       PRES   REMARKS
VICTORIA       CLOUDY    67  65  93 N10       29.99F
BEEVILLE       RAIN      66  66 100 NE7       30.00F
PLEASANTON     RAIN      64  63  94 SE17G25   29.88F
SAN ANTONIO    CLOUDY    66  62  87 W5        29.87F
$$

...LAREDO AREA OBSERVATIONS...

CITY           SKY/WX    TMP DP  RH WIND       PRES   REMARKS
LAREDO         CLOUDY    65  63  93 E16       30.00F
COTULLA        CLOUDY    66  63  90 S10       29.92F
DEL RIO        PTCLDY    64  62  93 SE6       29.96F
MCALLEN        CLOUDY    80  76  87 SE8       29.93R
HEBBRONVILLE     N/A     64  63  94 NE10G18   30.04R
$$

...OTHER TEXAS OBSERVATIONS...

CITY           SKY/WX    TMP DP  RH WIND       PRES   REMARKS
BROWNSVILLE    CLOUDY    80  77  90 S5        29.93R
HOUSTON        CLOUDY    77  75  93 S6        29.96S
COL. STATION   CLOUDY    67  65  93 SE3       29.95S
AUSTIN         LGT RAIN  64  64 100 S10       29.86F
WACO           CLOUDY    65  64  97 S7        29.85F
FORT WORTH     CLOUDY    66  66 100 SE3       29.86F
WICHITA FALLS  CLOUDY    63  62  97 S3        29.92F
LUBBOCK        CLOUDY    56  55  97 S5        29.99F
EL PASO        CLEAR     70  19  14 SW8       29.97S
$$

...MARINE OBSERVATIONS...

STATION/POSITION TIME  SKY/WX   TEMP    WIND        PRES    VSBY  WAVE   SWELL
                                AIR SEA DIR/SP/G                  HT/PER HT/PER
                 (UTC)          (F)     (DEG/KT/KT) (MB)    (MI)  (FT/S) (FT/S)
PORT ARANSAS     1100               82  360/ 21/ 23 1017.3R
BUOY 90 E PORT A 1050            81 80  180/ 12/ 14 1015.0R         4/ 5   2/ 7
BUOY 45 SE BAFFI 1050            81 81  160/ 12/ 16 1013.7R         5/ 6
BUOY 200 E PT IS 1050            81 81  150/ 12/ 14 1014.8R         3/ 4   2/ 6
BUOY 15 E GALVES 1050            80 81  170/ 12/ 14 1014.5R         3/ 4   2/ 6
$$


USA.gov is the U.S. government's official web portal to all federal, state and local government web resources and services.